Time,TemperatureF,DewpointF,PressureIn,WindDirection,WindDirectionDegrees,WindSpeedMPH,WindSpeedGustMPH,Humidity,HourlyPrecipIn,Conditions,Clouds,dailyrainin,SoftwareType,DateUTC
2013-03-11 00:14:00,43.2,41.0,30.24,SE,130,0.0,1.0,91,0.00,,,0.00,weatherlink.com 1.10,2013-03-11 04:14:00,
2013-03-11 00:29:00,43.5,41.0,30.23,ESE,123,0.0,0.0,90,0.00,,,0.00,weatherlink.com 1.10,2013-03-11 04:29:00,
2013-03-11 00:44:00,44.3,42.0,30.23,East,89,0.0,0.0,93,0.00,,,0.00,weatherlink.com 1.10,2013-03-11 04:44:00,
2013-03-11 00:59:00,44.2,42.0,30.23,East,89,0.0,0.0,92,0.00,,,0.00,weatherlink.com 1.10,2013-03-11 04:59:00,
2013-03-11 01:14:00,43.7,42.0,30.23,East,89,0.0,0.0,92,0.00,,,0.00,weatherlink.com 1.10,2013-03-11 05:14:00,
2013-03-11 01:29:00,43.7,42.0,30.23,East,89,0.0,0.0,93,0.00,,,0.00,weatherlink.com 1.10,2013-03-11 05:29:00,
2013-03-11 01:44:00,43.9,42.0,30.23,NNW,335,0.0,2.0,93,0.00,,,0.00,weatherlink.com 1.10,2013-03-11 05:44:00,
2013-03-11 01:59:00,44.1,42.0,30.23,NNW,338,0.0,0.0,93,0.00,,,0.00,weatherlink.com 1.10,2013-03-11 05:59:00,
2013-03-11 02:14:00,44.8,43.0,30.22,ENE,72,0.0,0.0,94,0.00,,,0.00,weatherlink.com 1.10,2013-03-11 06:14:00,
2013-03-11 02:29:00,44.8,43.0,30.22,ENE,71,0.0,0.0,94,0.00,,,0.00,weatherlink.com 1.10,2013-03-11 06:29:00,
2013-03-11 02:44:00,44.3,42.0,30.21,ENE,72,0.0,0.0,93,0.00,,,0.00,weatherlink.com 1.10,2013-03-11 06:44:00,
2013-03-11 02:59:00,44.5,43.0,30.21,ENE,71,0.0,0.0,94,0.00,,,0.00,weatherlink.com 1.10,2013-03-11 06:59:00,
2013-03-11 03:14:00,44.6,43.0,30.20,North,8,0.0,1.0,94,0.00,,,0.00,weatherlink.com 1.10,2013-03-11 07:14:00,
2013-03-11 03:29:00,44.4,43.0,30.19,North,8,0.0,0.0,94,0.00,,,0.00,weatherlink.com 1.10,2013-03-11 07:29:00,
2013-03-11 03:44:00,44.1,43.0,30.18,North,8,0.0,0.0,94,0.00,,,0.00,weatherlink.com 1.10,2013-03-11 07:44:00,
2013-03-11 03:59:00,43.9,42.0,30.18,North,8,0.0,0.0,94,0.00,,,0.00,weatherlink.com 1.10,2013-03-11 07:59:00,
2013-03-11 04:14:00,44.1,43.0,30.17,North,8,0.0,0.0,95,0.00,,,0.00,weatherlink.com 1.10,2013-03-11 08:14:00,
2013-03-11 04:29:00,44.3,43.0,30.18,North,7,0.0,0.0,96,0.00,,,0.00,weatherlink.com 1.10,2013-03-11 08:29:00,
2013-03-11 04:44:00,44.8,44.0,30.17,North,8,0.0,0.0,96,0.00,,,0.00,weatherlink.com 1.10,2013-03-11 08:44:00,
2013-03-11 04:59:00,45.4,44.0,30.16,NNE,33,0.0,0.0,96,0.00,,,0.00,weatherlink.com 1.10,2013-03-11 08:59:00,
2013-03-11 05:15:00,45.3,44.0,30.16,NNE,33,0.0,0.0,95,0.00,,,0.00,weatherlink.com 1.10,2013-03-11 09:15:00,
2013-03-11 05:30:00,45.1,44.0,30.16,NNE,33,0.0,0.0,95,0.00,,,0.00,weatherlink.com 1.10,2013-03-11 09:30:00,
2013-03-11 05:45:00,45.5,44.0,30.17,NNE,33,0.0,0.0,95,0.00,,,0.00,weatherlink.com 1.10,2013-03-11 09:45:00,
2013-03-11 06:00:00,46.0,45.0,30.16,ENE,59,1.0,1.0,95,0.00,,,0.00,weatherlink.com 1.10,2013-03-11 10:00:00,
2013-03-11 06:15:00,46.5,45.0,30.16,NE,55,0.0,0.0,95,0.00,,,0.00,weatherlink.com 1.10,2013-03-11 10:15:00,
2013-03-11 06:30:00,47.0,46.0,30.16,NE,55,0.0,0.0,95,0.00,,,0.00,weatherlink.com 1.10,2013-03-11 10:30:00,
2013-03-11 06:45:00,47.5,46.0,30.16,NE,55,0.0,0.0,95,0.00,,,0.00,weatherlink.com 1.10,2013-03-11 10:45:00,
2013-03-11 07:00:00,47.5,46.0,30.15,NE,54,0.0,0.0,94,0.00,,,0.00,weatherlink.com 1.10,2013-03-11 11:00:00,
2013-03-11 07:15:00,47.2,46.0,30.15,NE,54,0.0,0.0,95,0.00,,,0.00,weatherlink.com 1.10,2013-03-11 11:15:00,
2013-03-11 07:30:00,47.9,47.0,30.15,NE,54,0.0,0.0,96,0.00,,,0.00,weatherlink.com 1.10,2013-03-11 11:30:00,
2013-03-11 07:45:00,48.1,47.0,30.15,NE,54,0.0,0.0,96,0.00,,,0.00,weatherlink.com 1.10,2013-03-11 11:45:00,
2013-03-11 08:00:00,50.0,49.0,30.15,East,87,0.0,2.0,97,0.00,,,0.00,weatherlink.com 1.10,2013-03-11 12:00:00,
2013-03-11 08:15:00,51.4,51.0,30.15,ESE,114,0.0,1.0,97,0.00,,,0.00,weatherlink.com 1.10,2013-03-11 12:15:00,
2013-03-11 08:30:00,53.2,52.0,30.15,SSE,147,1.0,1.0,97,0.00,,,0.00,weatherlink.com 1.10,2013-03-11 12:30:00,
2013-03-11 08:45:00,55.0,54.0,30.15,East,93,2.0,3.0,95,0.00,,,0.00,weatherlink.com 1.10,2013-03-11 12:45:00,
2013-03-11 09:00:00,56.1,54.0,30.15,East,93,0.0,4.0,92,0.00,,,0.00,weatherlink.com 1.10,2013-03-11 13:00:00,
2013-03-11 09:30:00,58.6,55.0,30.15,East,85,1.0,4.0,87,0.00,,,0.00,weatherlink.com 1.10,2013-03-11 13:30:00,
2013-03-11 09:45:00,59.9,55.0,30.15,NNE,33,1.0,4.0,84,0.00,,,0.00,weatherlink.com 1.10,2013-03-11 13:45:00,
2013-03-11 10:00:00,61.1,55.0,30.14,East,84,3.0,4.0,80,0.00,,,0.00,weatherlink.com 1.10,2013-03-11 14:00:00,
2013-03-11 10:15:00,62.9,55.0,30.13,West,261,3.0,6.0,76,0.00,,,0.00,weatherlink.com 1.10,2013-03-11 14:15:00,
2013-03-11 10:31:00,64.1,55.0,30.13,SSE,154,2.0,6.0,73,0.00,,,0.00,weatherlink.com 1.10,2013-03-11 14:31:00,
2013-03-11 10:46:00,65.1,55.0,30.13,East,98,3.0,5.0,71,0.00,,,0.00,weatherlink.com 1.10,2013-03-11 14:46:00,
2013-03-11 11:01:00,66.0,56.0,30.13,NE,37,2.0,6.0,69,0.00,,,0.00,weatherlink.com 1.10,2013-03-11 15:01:00,
2013-03-11 12:01:00,69.3,55.0,30.12,SE,139,3.0,7.0,61,0.00,,,0.00,weatherlink.com 1.10,2013-03-11 16:01:00,
2013-03-11 12:16:00,70.6,54.0,30.12,SE,133,2.0,7.0,57,0.00,,,0.00,weatherlink.com 1.10,2013-03-11 16:16:00,
2013-03-11 13:01:00,71.1,54.0,30.11,SSE,148,3.0,8.0,56,0.00,,,0.00,weatherlink.com 1.10,2013-03-11 17:01:00,
2013-03-11 13:16:00,70.9,55.0,30.11,ESE,103,4.0,12.0,57,0.00,,,0.00,weatherlink.com 1.10,2013-03-11 17:16:00,
2013-03-11 13:31:00,70.3,55.0,30.10,West,278,4.0,9.0,59,0.00,,,0.00,weatherlink.com 1.10,2013-03-11 17:31:00,
2013-03-11 14:01:00,68.4,54.0,30.08,SSE,168,3.0,9.0,61,0.00,,,0.00,weatherlink.com 1.10,2013-03-11 18:01:00,
2013-03-11 14:31:00,71.7,55.0,30.07,SSW,212,4.0,11.0,55,0.00,,,0.00,weatherlink.com 1.10,2013-03-11 18:31:00,
2013-03-11 14:46:00,70.9,54.0,30.06,SSW,210,2.0,12.0,56,0.00,,,0.00,weatherlink.com 1.10,2013-03-11 18:46:00,
2013-03-11 15:01:00,69.6,55.0,30.06,SW,226,6.0,10.0,61,0.00,,,0.00,weatherlink.com 1.10,2013-03-11 19:01:00,
2013-03-11 15:16:00,68.4,56.0,30.05,South,185,0.0,7.0,64,0.00,,,0.00,weatherlink.com 1.10,2013-03-11 19:16:00,
2013-03-11 15:31:00,68.9,57.0,30.05,South,187,4.0,8.0,65,0.00,,,0.00,weatherlink.com 1.10,2013-03-11 19:31:00,
2013-03-11 15:46:00,69.1,56.0,30.03,WSW,243,4.0,11.0,64,0.00,,,0.00,weatherlink.com 1.10,2013-03-11 19:46:00,
2013-03-11 16:01:00,68.6,56.0,30.04,WSW,253,1.0,11.0,64,0.00,,,0.00,weatherlink.com 1.10,2013-03-11 20:01:00,
2013-03-11 16:16:00,67.7,56.0,30.03,SSE,163,4.0,10.0,66,0.00,,,0.00,weatherlink.com 1.10,2013-03-11 20:16:00,
2013-03-11 16:31:00,67.0,56.0,30.04,SE,130,7.0,12.0,69,0.00,,,0.00,weatherlink.com 1.10,2013-03-11 20:31:00,
2013-03-11 17:01:00,66.1,58.0,30.02,SE,129,2.0,8.0,74,0.00,,,0.00,weatherlink.com 1.10,2013-03-11 21:01:00,
2013-03-11 17:17:00,66.8,57.0,30.03,South,170,1.0,3.0,72,0.00,,,0.00,weatherlink.com 1.10,2013-03-11 21:17:00,
2013-03-11 17:32:00,67.0,57.0,30.02,WSW,254,2.0,3.0,71,0.00,,,0.00,weatherlink.com 1.10,2013-03-11 21:32:00,
2013-03-11 17:47:00,67.1,57.0,30.02,SW,225,1.0,7.0,70,0.00,,,0.00,weatherlink.com 1.10,2013-03-11 21:47:00,
2013-03-11 18:02:00,66.9,57.0,30.02,SE,140,0.0,4.0,70,0.00,,,0.00,weatherlink.com 1.10,2013-03-11 22:02:00,
2013-03-11 18:32:00,65.4,57.0,30.02,East,95,2.0,4.0,74,0.00,,,0.00,weatherlink.com 1.10,2013-03-11 22:32:00,
2013-03-11 18:47:00,64.4,57.0,30.01,East,97,1.0,5.0,77,0.00,,,0.00,weatherlink.com 1.10,2013-03-11 22:47:00,
2013-03-11 19:02:00,63.3,56.0,30.01,SSW,209,1.0,4.0,78,0.00,,,0.00,weatherlink.com 1.10,2013-03-11 23:02:00,
2013-03-11 19:17:00,62.4,56.0,30.01,East,96,0.0,3.0,80,0.00,,,0.00,weatherlink.com 1.10,2013-03-11 23:17:00,
2013-03-11 19:32:00,61.4,56.0,30.00,ESE,108,0.0,1.0,82,0.00,,,0.00,weatherlink.com 1.10,2013-03-11 23:32:00,
2013-03-11 19:47:00,60.5,55.0,30.00,ESE,108,0.0,1.0,83,0.00,,,0.00,weatherlink.com 1.10,2013-03-11 23:47:00,
2013-03-11 20:02:00,59.9,55.0,30.00,ESE,109,0.0,1.0,84,0.00,,,0.00,weatherlink.com 1.10,2013-03-12 00:02:00,
2013-03-11 20:17:00,59.8,55.0,30.01,SSE,153,0.0,2.0,85,0.00,,,0.00,weatherlink.com 1.10,2013-03-12 00:17:00,
2013-03-11 20:32:00,59.8,55.0,30.00,East,92,1.0,3.0,85,0.00,,,0.00,weatherlink.com 1.10,2013-03-12 00:32:00,
2013-03-11 20:47:00,59.8,55.0,29.99,SE,132,0.0,4.0,85,0.00,,,0.00,weatherlink.com 1.10,2013-03-12 00:47:00,
2013-03-11 21:02:00,60.1,56.0,29.97,South,184,0.0,4.0,86,0.00,,,0.00,weatherlink.com 1.10,2013-03-12 01:02:00,
2013-03-11 21:17:00,61.1,57.0,29.96,SSE,168,3.0,7.0,85,0.00,,,0.00,weatherlink.com 1.10,2013-03-12 01:17:00,
2013-03-11 21:32:00,62.8,57.0,29.96,South,182,2.0,8.0,80,0.00,,,0.00,weatherlink.com 1.10,2013-03-12 01:32:00,
2013-03-11 21:47:00,63.8,57.0,29.97,SE,127,3.0,7.0,79,0.00,,,0.00,weatherlink.com 1.10,2013-03-12 01:47:00,
2013-03-11 22:02:00,64.0,57.0,29.96,SW,222,1.0,5.0,79,0.00,,,0.00,weatherlink.com 1.10,2013-03-12 02:02:00,
2013-03-11 22:17:00,63.9,57.0,29.97,South,170,3.0,6.0,79,0.00,,,0.00,weatherlink.com 1.10,2013-03-12 02:17:00,
2013-03-11 22:32:00,63.9,58.0,29.97,WSW,251,2.0,8.0,80,0.00,,,0.00,weatherlink.com 1.10,2013-03-12 02:32:00,
2013-03-11 22:47:00,63.4,58.0,29.97,SSE,156,1.0,4.0,81,0.00,,,0.00,weatherlink.com 1.10,2013-03-12 02:47:00,
2013-03-11 23:02:00,63.1,58.0,29.96,WSW,244,2.0,8.0,83,0.00,,,0.00,weatherlink.com 1.10,2013-03-12 03:02:00,
2013-03-11 23:17:00,62.4,58.0,29.95,SW,215,3.0,7.0,85,0.00,,,0.00,weatherlink.com 1.10,2013-03-12 03:17:00,
2013-03-11 23:32:00,62.1,58.0,29.94,South,184,3.0,10.0,87,0.00,,,0.00,weatherlink.com 1.10,2013-03-12 03:32:00,
2013-03-11 23:47:00,62.5,59.0,29.94,SE,146,4.0,14.0,87,0.00,,,0.00,weatherlink.com 1.10,2013-03-12 03:47:00,